Regional Weather Roundup
Issued by NWS Northern Indiana

Home | Current Version | Previous Version | Text Only | Print | Product List | Glossary Off
Versions: 1 2 3 4 5 6 7 8 9 10 11 12 13 14 15 16 17 18 19 20 21 22 23 24 25 26 27 28 29 30 31 32 33 34 35 36 37 38 39 40 41 42 43 44 45 46 47 48 49 50

000
ASUS43 KIWX 031400
RWRIWX

KIWX WEATHER ROUNDUP
NATIONAL WEATHER SERVICE NORTHERN INDIANA
900 AM EST TUE MAR 03 2015

NOTE: "FAIR" INDICATES FEW OR NO CLOUDS BELOW 12,000 FEET WITH NO
SIGNIFICANT WEATHER AND/OR OBSTRUCTIONS TO VISIBILITY.

* THESE STATIONS ARE NOT UNDER NWS QUALITY CONTROL. THEY ALSO MAY NOT
  REPORT WEATHER SUCH AS PRECIPITATION OR FOG.

INZ001>027-031500-
NORTHERN INDIANA

CITY           SKY/WX    TMP DP  RH WIND       PRES   REMARKS
GARY*          CLOUDY    28  23  80 SE12      29.89F HAZE    WCI  18
VALPARAISO     MIX PCPN  26  24  92 SE15G21   29.90F FOG     WCI  14
SOUTH BEND     FRZ RAIN  27  22  81 SE16      29.94F WCI  15
ELKHART*       CLOUDY    25  18  74 SE10      29.97F WCI  15
GOSHEN         CLOUDY    25  20  81 SE14      29.97F HAZE    WCI  13
ANGOLA*        CLOUDY    21  18  86 SE10      30.00F WCI  10
FORT WAYNE     FRZ DRZL  26  21  81 SE13      30.01F WCI  15
PERU/GRISSOM   FRZ DRZL  27  23  86 SE12      29.96F WCI  16

$$
INZ028>050-031500-
CENTRAL INDIANA

CITY           SKY/WX    TMP DP  RH WIND       PRES   REMARKS
LAFAYETTE      CLOUDY    27  24  89 SE9       29.93F FOG     WCI  18
KOKOMO*        PTSUNNY   27  21  80 S15       29.98F WCI  15
MUNCIE*        CLOUDY    28  20  71 SE13      30.00F WCI  17
INDIANAPOLIS   CLOUDY    29  21  72 SE14      29.98F WCI  18

$$
MIZ043>046-050>051-056>058-064>065-071>073-077>080-031500-
SOUTHWEST LOWER MICHIGAN

CITY           SKY/WX    TMP DP  RH WIND       PRES   REMARKS
BATTLE CREEK   LGT SNOW  23  18  81 SE13      29.95F WCI  11
BENTON HARBOR  FRZ RAIN  24  21  88 SE15      29.93S FOG     WCI  11
COLDWATER*     LGT SNOW  23  19  85 SE13G18   29.98F WCI  11
HILLSDALE*     LGT SNOW  22  19  90 SE9       30.00F WCI  11
HOLLAND        LGT SNOW  24  21  88 SE12      29.93F VSB 3/4 WCI  13
GRAND RAPIDS   HVY SNOW  22  19  89 SE15      29.96F VSB 1/4 WCI   9
KALAMAZOO      CLOUDY    23  19  85 SE10      29.95F FOG     WCI  12
STURGIS*       CLOUDY    23  19  86 SE14G20   29.96F WCI  11
THREE RIVERS*  CLOUDY    24  19  82 SE12      29.96F WCI  13

$$
OHZ001>008-015>018-024>025-031500-
NORTHWEST OHIO

CITY           SKY/WX    TMP DP  RH WIND       PRES   REMARKS
DEFIANCE       CLOUDY    25  18  74 SE8       30.07F WCI  16
FINDLAY        CLOUDY    27  19  72 SE12      30.08F WCI  17
TOLEDO EXPRESS MIX PCPN  22  17  81 E6        30.10F WCI  14
TOLEDO METCALF MIX PCPN  23  17  78 E5        30.12F WCI  17
LIMA           CLOUDY    28  20  71 SE7       30.07F WCI  21

$$
AND FOR LAKE MICHIGAN COASTAL AND OPEN LAKE BUOY OBSERVATIONS

STATION/POSITION TEMP    WIND        PRES    VSBY  WAVE
                 AIR SEA DIR/SP/G                  HT/PER
                 (F)     (DEG/KT/KT) (MB)    (MI)  (FT/S)
CALUMET HARBOR    27     150/ 14/ 21 1011.7F
MICHIGAN CITY     26     120/ 15/ 18   N/A
SAINT JOSEPH      25     130/  3/ 10 1013.2F

$$
&&



USA.gov is the U.S. government's official web portal to all federal, state and local government web resources and services.